Tracking 28794 objects as of 22-Apr-2024
HD Live streaming from Space Station
objects crossing your sky now

DIDO 3

Track DIDO 3 now!
10-day predictions
DIDO 3 is classified as:


NORAD ID: 46284
Int'l Code: 2020-061N
Perigee: 479.3 km
Apogee: 483.9 km
Inclination: 97.4 °
Period: 94.1 minutes
Semi major axis: 6852 km
RCS: Unknown
Launch date: September 3, 2020
Source: Israel (ISRA)
Launch site: FRENCH GUIANA (FRGUI)

Uplink (MHz):
Downlink (MHz): 400.450
Beacon (MHz):
Mode: 1200bps BPSK
Call sign: DIDO-3
Status: Active

Your satellite tracking list
Your tracking list is empty




NASA's NSSDC Master Catalog

Two Line Element Set (TLE):
1 46284U 20061N   24112.73552894  .00044533  00000-0  15077-2 0  9997
2 46284  97.3537 178.9755 0003400  83.7469 276.4159 15.30446877200793
Source of the keplerian elements: AFSPC